Salida, CO

7:59 PM MDT on September 21, 2017 (GMT -0600)
Salida

Weather History for KANK - February, 2013

Change the Weather History Date:

Tuesday, February 12, 2013

  Actual Average (KGUC) Record (KGUC)
Temperature  
Mean Temperature 16 °F -  
Max Temperature 33 °F 27 °F 41 °F (2002)
Min Temperature -2 °F 2 °F -22 °F (2006)
Degree Days  
Heating Degree Days 50    
Moisture  
Dew Point 3 °F    
Average Humidity 58    
Maximum Humidity 89    
Minimum Humidity 33    
Precipitation  
Precipitation 0.00 in - - ()
Sea Level Pressure  
Sea Level Pressure 30.09 in    
Wind  
Wind Speed 5 mph (West)    
Max Wind Speed 21 mph    
Max Gust Speed 28 mph    
Visibility 10 miles    
Events      
Averages and records for this station are not official NWS values.
T = Trace of Precipitation, MM = Missing Value Source: NWS Daily Summary

Daily Weather History Graph

Daily Weather History Graph

Search for Another Location

Airport or City:

Trip Planner

Search our weather history database for the weather conditions in past years. The results will help you decide how hot, cold, wet, or windy it might be!

Date:

Astronomy

Feb. 12, 2013 Rise Set
Actual Time 6:58 AM MST 5:39 PM MST
Civil Twilight 6:30 AM MST 6:06 PM MST
Nautical Twilight 5:59 AM MST 6:37 PM MST
Astronomical Twilight 5:28 AM MST 7:08 PM MST
Moon 7:59 AM MST (2/12) 8:39 PM MST (2/12)
Length of Visible Light 11h 35m
Length of Day
10h 41m
Waxing Crescent, 8% of the Moon is Illuminated
Feb 12
Waxing Crescent
Feb 17
First Quarter
Feb 25
Full
Mar 4
Last Quarter
Mar 11
New

Hourly Weather History & Observations

Time (MST) Temp. Windchill Dew Point Humidity Pressure Visibility Wind Dir Wind Speed Gust Speed Precip Events Conditions
12:15 AM 5.0 °F -4.1 °F 2.3 °F 89% 30.07 in 10.0 mi NW 4.6 mph - N/A   Clear
12:35 AM 5.7 °F - 2.5 °F 86% 30.07 in 10.0 mi Calm Calm - N/A   Clear
12:55 AM 3.0 °F -4.4 °F -1.3 °F 82% 30.07 in 10.0 mi West 3.5 mph - N/A   Clear
1:15 AM 3.9 °F -3.4 °F 0.3 °F 85% 30.07 in 10.0 mi WNW 3.5 mph - N/A   Clear
1:35 AM 3.0 °F - -0.8 °F 84% 30.07 in 10.0 mi Calm Calm - N/A   Clear
1:55 AM 3.2 °F - -0.4 °F 85% 30.07 in 10.0 mi Calm Calm - N/A   Clear
2:15 AM 1.4 °F - -3.3 °F 81% 30.07 in 10.0 mi Calm Calm - N/A   Clear
2:35 AM 2.5 °F -5.0 °F -1.1 °F 85% 30.08 in 10.0 mi West 3.5 mph - N/A   Clear
2:55 AM 2.8 °F -9.5 °F -0.9 °F 84% 30.07 in 10.0 mi WSW 6.9 mph - N/A   Clear
3:15 AM 2.8 °F -4.6 °F -2.2 °F 79% 30.07 in 10.0 mi West 3.5 mph - N/A   Clear
3:35 AM 3.2 °F -4.2 °F -3.5 °F 74% 30.07 in 10.0 mi West 3.5 mph - N/A   Clear
3:55 AM 3.0 °F -4.4 °F -1.7 °F 81% 30.07 in 10.0 mi WSW 3.5 mph - N/A   Clear
4:15 AM 0.3 °F -11.2 °F -4.4 °F 81% 30.07 in 10.0 mi West 5.8 mph - N/A   Clear
4:35 AM 0.3 °F -7.5 °F -4.4 °F 81% 30.07 in 10.0 mi WNW 3.5 mph - N/A   Clear
4:55 AM 1.8 °F -9.5 °F -2.9 °F 81% 30.08 in 10.0 mi West 5.8 mph - N/A   Clear
5:15 AM 2.1 °F - -2.2 °F 82% 30.09 in 10.0 mi Calm Calm - N/A   Clear
5:35 AM 1.8 °F -10.8 °F -3.6 °F 78% 30.10 in 10.0 mi WSW 6.9 mph - N/A   Clear
5:55 AM 2.5 °F -8.6 °F -3.8 °F 75% 30.10 in 10.0 mi West 5.8 mph - N/A   Clear
6:15 AM 2.1 °F -7.4 °F -3.6 °F 77% 30.11 in 10.0 mi SW 4.6 mph - N/A   Clear
6:35 AM -0.0 °F -13.0 °F -4.5 °F 81% 30.11 in 10.0 mi WSW 6.9 mph - N/A   Clear
6:55 AM -0.9 °F -8.9 °F -6.2 °F 79% 30.12 in 10.0 mi West 3.5 mph - N/A   Clear
7:15 AM -2.6 °F - -7.6 °F 79% 30.12 in 10.0 mi Calm Calm - N/A   Clear
7:35 AM -1.5 °F - -6.3 °F 80% 30.11 in 10.0 mi Calm Calm - N/A   Clear
7:55 AM 1.2 °F - -3.6 °F 80% 30.12 in 10.0 mi Calm Calm - N/A   Clear
8:15 AM 4.8 °F - -0.4 °F 79% 30.12 in 10.0 mi Calm Calm - N/A   Clear
8:35 AM 8.1 °F - 1.6 °F 75% 30.12 in 10.0 mi Calm Calm - N/A   Clear
8:55 AM 11.3 °F 5.1 °F 2.1 °F 67% 30.12 in 10.0 mi West 3.5 mph - N/A   Clear
9:15 AM 13.3 °F - 3.0 °F 64% 30.12 in 10.0 mi Calm Calm - N/A   Clear
9:35 AM 11.8 °F - 3.2 °F 68% 30.12 in 10.0 mi Calm Calm - N/A   Clear
9:55 AM 16.7 °F - 4.3 °F 58% 30.12 in 10.0 mi Calm Calm - N/A   Clear
10:15 AM 19.0 °F - 4.6 °F 54% 30.11 in 10.0 mi Calm Calm - N/A   Clear
10:35 AM 19.0 °F - 3.9 °F 52% 30.11 in 10.0 mi Calm Calm - N/A   Clear
10:55 AM 19.4 °F - 8.1 °F 61% 30.11 in 10.0 mi Calm Calm - N/A   Clear
11:15 AM 21.9 °F - 1.4 °F 41% 30.10 in 10.0 mi Calm Calm - N/A   Clear
11:35 AM 24.1 °F - 4.8 °F 44% 30.10 in 10.0 mi Calm Calm - N/A   Clear
11:55 AM 24.3 °F - 5.0 °F 44% 30.09 in 10.0 mi Calm Calm - N/A   Clear
12:15 PM 25.9 °F 20.3 °F 9.0 °F 49% 30.09 in 10.0 mi NNE 4.6 mph - N/A   Clear
12:35 PM 27.1 °F 23.2 °F 7.2 °F 43% 30.07 in 10.0 mi ENE 3.5 mph - N/A   Clear
12:55 PM 27.5 °F - 8.1 °F 44% 30.07 in 10.0 mi Calm Calm - N/A   Clear
1:15 PM 28.2 °F - 7.5 °F 42% 30.06 in 10.0 mi Calm Calm - N/A   Clear
1:35 PM 29.8 °F - 7.0 °F 38% 30.05 in 10.0 mi Calm Calm - N/A   Clear
1:55 PM 30.7 °F - 7.2 °F 37% 30.05 in 10.0 mi Calm Calm - N/A   Clear
2:15 PM 32.2 °F 28.9 °F 6.3 °F 34% 30.04 in 10.0 mi SSW 3.5 mph - N/A   Clear
2:35 PM 32.9 °F 25.9 °F 7.2 °F 34% 30.04 in 10.0 mi SSW 8.1 mph - N/A   Clear
2:55 PM 33.4 °F - 6.6 °F 33% 30.03 in 10.0 mi Calm Calm - N/A   Clear
3:15 PM 33.4 °F 28.1 °F 9.1 °F 36% 30.03 in 10.0 mi West 5.8 mph - N/A   Clear
3:35 PM 33.6 °F 26.2 °F 9.5 °F 37% 30.03 in 10.0 mi SSW 9.2 mph - N/A   Clear
3:55 PM 33.1 °F 24.9 °F 10.0 °F 38% 30.03 in 10.0 mi SW 10.4 mph 16.1 mph N/A   Clear
4:15 PM 32.0 °F 22.1 °F 8.1 °F 37% 30.03 in 10.0 mi SW 13.8 mph 20.7 mph N/A   Clear
4:35 PM 31.1 °F 20.5 °F 6.8 °F 36% 30.04 in 10.0 mi SW 15.0 mph 23.0 mph N/A   Clear
4:55 PM 29.3 °F 17.0 °F 6.3 °F 38% 30.04 in 10.0 mi SW 18.4 mph 26.5 mph N/A   Clear
5:15 PM 28.8 °F 15.5 °F 6.1 °F 38% 30.05 in 10.0 mi SSW 20.7 mph 27.6 mph N/A   Clear
5:35 PM 27.5 °F 15.4 °F 5.9 °F 40% 30.06 in 10.0 mi SW 16.1 mph 25.3 mph N/A   Clear
5:55 PM 26.6 °F 16.2 °F 4.6 °F 39% 30.07 in 10.0 mi WSW 11.5 mph 26.5 mph N/A   Clear
6:15 PM 25.7 °F 13.1 °F 5.0 °F 41% 30.07 in 10.0 mi SW 16.1 mph 23.0 mph N/A   Clear
6:35 PM 25.7 °F 13.1 °F 5.0 °F 41% 30.07 in 10.0 mi SW 16.1 mph 20.7 mph N/A   Clear
6:55 PM 25.2 °F 13.3 °F 4.8 °F 42% 30.09 in 10.0 mi WSW 13.8 mph - N/A   Clear
7:15 PM 25.7 °F 14.0 °F 4.6 °F 41% 30.09 in 10.0 mi SW 13.8 mph 21.9 mph N/A   Clear
7:35 PM 25.5 °F 14.9 °F 5.2 °F 42% 30.09 in 10.0 mi WSW 11.5 mph 21.9 mph N/A   Clear
7:55 PM 25.5 °F 14.9 °F 5.4 °F 42% 30.09 in 10.0 mi WSW 11.5 mph - N/A   Clear
8:15 PM 25.9 °F 14.8 °F 5.4 °F 42% 30.10 in 10.0 mi West 12.7 mph - N/A   Clear
8:35 PM 26.6 °F 16.2 °F 4.8 °F 40% 30.10 in 10.0 mi WSW 11.5 mph 19.6 mph N/A   Clear
8:55 PM 26.1 °F 15.6 °F 5.4 °F 41% 30.10 in 10.0 mi West 11.5 mph - N/A   Clear
9:15 PM 26.1 °F 18.4 °F 5.7 °F 42% 30.11 in 10.0 mi West 6.9 mph 18.4 mph N/A   Clear
9:35 PM 25.3 °F 16.0 °F 6.3 °F 44% 30.12 in 10.0 mi West 9.2 mph - N/A   Scattered Clouds
9:55 PM 24.3 °F 16.3 °F 6.1 °F 46% 30.12 in 10.0 mi WNW 6.9 mph 18.4 mph N/A   Clear
10:15 PM 24.4 °F 16.5 °F 6.1 °F 46% 30.12 in 10.0 mi NW 6.9 mph 17.3 mph N/A   Clear
10:35 PM 23.0 °F 14.7 °F 5.9 °F 48% 30.12 in 10.0 mi NNW 6.9 mph 16.1 mph N/A   Clear
10:55 PM 22.6 °F 10.1 °F 6.4 °F 50% 30.12 in 10.0 mi NNW 13.8 mph - N/A   Clear
11:15 PM 22.5 °F 10.5 °F 6.4 °F 50% 30.12 in 10.0 mi NNW 12.7 mph - N/A   Clear
11:35 PM 22.6 °F 10.7 °F 6.3 °F 50% 30.12 in 10.0 mi NW 12.7 mph - N/A   Clear
11:55 PM 22.5 °F 11.7 °F 6.1 °F 50% 30.12 in 10.0 mi NW 10.4 mph - N/A   Clear